Date String (YYYY-MM-DD hh:mm:ss) UTC,Instrument flags,absolute air pressure of the measurement (hPa),sample flow rate (lpm),inlet stack bypass flow (lpm),air temperature of the measurement (°C),ambient temperature measured by the external sensor (°C),aerosol sample conditioner tube jacket temperature (°C),OPC LED temperature (°C),internal box temperature (°C),relative humidity of the measurement (%),span deviation,mass concentration of particles derived from Lorenz-Mie calculation of OPC scattering (μg/m³),mass concentration of particles derived from Lorenz-Mie calculation of OPC scattering (μg/m³),mass concentration of particles derived from Lorenz-Mie calculation of OPC scattering (μg/m³)
DateTimeUTC,F1_M11,P_M11,Q1_M11,Q2_M11,T1_M11,T2_M11,T3_M11,T4_M11,T5_M11,U1_M11,ZSPAN_M11,X0_M11,X2_M11,X1_M11
2023-09-21 16:00:00,SystemResetWarning,0828.9,5.01,000.00,028.5,027.4,000.0,036.8,030.1,21.1,0000.0,0007.88,0003.00,0001.92
2023-09-21 16:01:00,SystemResetWarning,0829.0,5.00,000.00,028.5,027.4,000.0,036.8,030.2,20.6,0000.0,0006.89,0002.98,0001.92
2023-09-21 16:02:00,SystemResetWarning,0828.9,5.00,000.00,028.6,027.5,000.0,036.8,030.3,20.8,0000.0,0007.09,0003.00,0001.91
2023-09-21 16:03:00,SystemResetWarning,0829.0,4.98,000.00,028.6,026.7,000.0,036.8,030.1,20.8,0000.0,0007.44,0003.06,0001.92
2023-09-21 16:04:00,SystemResetWarning,0829.0,5.01,000.00,028.5,025.1,000.0,036.7,029.6,21.1,0000.0,0007.48,0003.04,0001.94
2023-09-21 16:05:00,SystemResetWarning,0829.0,5.01,000.00,028.4,024.7,000.0,036.7,029.6,20.6,0000.0,0007.39,0003.01,0001.93
2023-09-21 16:06:00,SystemResetWarning,0829.0,5.01,000.00,028.3,024.9,000.0,036.7,029.5,19.5,0000.0,0007.39,0003.02,0001.92
2023-09-21 16:07:00,SystemResetWarning,0829.0,4.99,000.00,028.2,025.2,000.0,036.7,029.5,19.5,0000.0,0007.75,0003.01,0001.92
2023-09-21 16:08:00,SystemResetWarning,0828.9,5.00,000.00,028.2,025.5,000.0,036.7,029.5,20.1,0000.0,0007.88,0002.99,0001.91
2023-09-21 16:09:00,SystemResetWarning,0829.0,5.01,000.00,028.2,025.8,000.0,036.6,029.6,20.2,0000.0,0007.76,0002.99,0001.90
2023-09-21 16:10:00,SystemResetWarning,0829.0,5.00,000.00,028.2,026.1,000.0,036.6,029.6,20.3,0000.0,0007.67,0002.95,0001.89
2023-09-21 16:11:00,SystemResetWarning,0828.9,4.99,000.00,028.2,026.4,000.0,036.6,029.7,20.5,0000.0,0007.95,0002.94,0001.88
2023-09-21 16:12:00,SystemResetWarning,0829.0,5.00,000.00,028.3,026.6,000.0,036.6,029.8,20.9,0000.0,0008.05,0002.94,0001.88
2023-09-21 16:13:00,SystemResetWarning,0829.0,5.00,000.00,028.3,026.7,000.0,036.6,029.8,21.6,0000.0,0007.46,0002.93,0001.88
2023-09-21 16:14:00,SystemResetWarning,0829.0,5.00,000.00,028.3,026.9,000.0,036.6,029.9,21.3,0000.0,0006.83,0002.87,0001.89
2023-09-21 16:15:00,SystemResetWarning,0829.0,5.00,000.00,028.3,027.0,000.0,036.7,029.9,21.5,0000.0,0006.57,0002.90,0001.88
2023-09-21 16:16:00,SystemResetWarning,0828.9,5.00,000.00,028.4,027.1,000.0,036.7,030.0,21.0,0000.0,0006.60,0002.89,0001.88
2023-09-21 16:17:00,SystemResetWarning,0829.0,5.00,000.00,028.4,027.2,000.0,036.7,030.1,21.5,0000.0,0006.80,0002.90,0001.88
2023-09-21 16:18:00,SystemResetWarning,0829.0,5.00,000.00,028.4,027.3,000.0,036.7,030.1,21.2,0000.0,0006.89,0002.83,0001.88
2023-09-21 16:19:00,SystemResetWarning,0829.1,5.00,000.00,028.5,027.1,000.0,036.7,030.1,20.8,0000.0,0007.19,0002.76,0001.87
2023-09-21 16:20:00,SystemResetWarning,0829.0,5.00,000.00,028.4,025.6,000.0,036.7,029.7,20.7,0000.0,0007.47,0002.64,0001.88
2023-09-21 16:21:00,SystemResetWarning,0829.0,5.00,000.00,028.3,024.5,000.0,036.6,029.4,20.9,0000.0,0007.59,0002.67,0001.89
2023-09-21 16:22:00,SystemResetWarning,0829.0,5.01,000.00,028.2,024.6,000.0,036.6,029.4,20.9,0000.0,0007.65,0002.68,0001.89
2023-09-21 16:23:00,SystemResetWarning,0829.0,5.01,000.00,028.1,024.9,000.0,036.6,029.4,19.7,0000.0,0007.66,0002.66,0001.88
2023-09-21 16:24:00,SystemResetWarning,0829.0,5.00,000.00,028.1,025.3,000.0,036.6,029.4,18.7,0000.0,0007.80,0002.72,0001.90
2023-09-21 16:25:00,SystemResetWarning,0829.0,4.99,000.00,028.1,025.6,000.0,036.5,029.4,19.1,0000.0,0008.02,0002.78,0001.91
2023-09-21 16:26:00,SystemResetWarning,0829.0,4.99,000.00,028.1,025.9,000.0,036.5,029.5,19.2,0000.0,0008.64,0002.73,0001.91
2023-09-21 16:27:00,SystemResetWarning,0829.0,5.00,000.00,028.1,026.2,000.0,036.5,029.6,19.1,0000.0,0009.15,0002.70,0001.92
2023-09-21 16:28:00,SystemResetWarning,0829.0,5.01,000.00,028.2,026.4,000.0,036.5,029.7,19.4,0000.0,0009.74,0002.71,0001.93
2023-09-21 16:29:00,SystemResetWarning,0829.0,5.00,000.00,028.2,026.6,000.0,036.5,029.7,19.6,0000.0,0010.10,0002.73,0001.93
2023-09-21 16:30:00,SystemResetWarning,0829.0,4.99,000.00,028.2,026.7,000.0,036.5,029.8,19.5,0000.0,0009.53,0002.74,0001.94
2023-09-21 16:31:00,SystemResetWarning,0829.0,4.99,000.00,028.2,026.9,000.0,036.5,029.8,19.5,0000.0,0009.17,0002.78,0001.95
2023-09-21 16:32:00,SystemResetWarning,0829.0,5.00,000.00,028.3,027.0,000.0,036.6,029.9,19.4,0000.0,0009.55,0002.79,0001.96
2023-09-21 16:33:00,SystemResetWarning,0829.0,5.01,000.00,028.3,027.1,000.0,036.6,030.0,19.4,0000.0,0009.33,0002.77,0001.97
2023-09-21 16:34:00,SystemResetWarning,0829.0,5.01,000.00,028.3,027.2,000.0,036.6,030.0,19.3,0000.0,0008.92,0002.74,0001.98
2023-09-21 16:35:00,SystemResetWarning,0829.0,5.00,000.00,028.4,027.1,000.0,036.6,030.0,19.6,0000.0,0009.05,0002.72,0001.96
2023-09-21 16:36:00,SystemResetWarning,0829.0,4.98,000.00,028.3,025.7,000.0,036.6,029.6,19.6,0000.0,0009.57,0002.72,0001.96
2023-09-21 16:37:00,SystemResetWarning,0828.9,5.01,000.00,028.2,024.6,000.0,036.5,029.3,19.5,0000.0,0009.37,0002.73,0001.96
2023-09-21 16:38:00,SystemResetWarning,0829.0,5.01,000.00,028.1,024.6,000.0,036.5,029.4,19.7,0000.0,0009.15,0002.78,0001.97
2023-09-21 16:39:00,SystemResetWarning,0828.9,5.00,000.00,028.0,024.9,000.0,036.5,029.3,19.7,0000.0,0008.61,0002.79,0001.98
2023-09-21 16:40:00,SystemResetWarning,0828.9,4.99,000.00,028.0,025.2,000.0,036.4,029.3,19.8,0000.0,0007.89,0002.78,0001.97
2023-09-21 16:41:00,SystemResetWarning,0828.9,4.99,000.00,028.0,025.6,000.0,036.4,029.4,19.8,0000.0,0007.99,0002.81,0001.97
2023-09-21 16:42:00,SystemResetWarning,0828.9,5.00,000.00,028.0,025.9,000.0,036.4,029.5,19.6,0000.0,0007.99,0002.82,0001.98
2023-09-21 16:43:00,SystemResetWarning,0829.0,5.01,000.00,028.0,026.1,000.0,036.4,029.5,19.7,0000.0,0008.33,0002.82,0001.97
2023-09-21 16:44:00,SystemResetWarning,0828.9,5.01,000.00,028.1,026.4,000.0,036.4,029.6,20.0,0000.0,0008.83,0002.84,0001.97
2023-09-21 16:45:00,SystemResetWarning,0828.8,5.00,000.00,028.1,026.6,000.0,036.4,029.7,19.9,0000.0,0009.28,0002.88,0001.98
2023-09-21 16:46:00,SystemResetWarning,0828.9,5.00,000.00,028.1,026.7,000.0,036.5,029.7,20.0,0000.0,0009.16,0002.84,0001.99
2023-09-21 16:47:00,SystemResetWarning,0828.8,5.00,000.00,028.2,026.9,000.0,036.5,029.8,19.6,0000.0,0008.67,0002.81,0001.98
2023-09-21 16:48:00,SystemResetWarning,0828.8,5.00,000.00,028.2,027.0,000.0,036.5,029.8,19.3,0000.0,0008.26,0002.85,0001.99
2023-09-21 16:49:00,SystemResetWarning,0828.8,5.00,000.00,028.2,027.1,000.0,036.5,029.9,19.5,0000.0,0007.85,0002.84,0001.99
2023-09-21 16:50:00,SystemResetWarning,0828.8,4.98,000.00,028.2,026.1,000.0,036.5,029.6,20.1,0000.0,0007.74,0002.79,0001.98
2023-09-21 16:51:00,SystemResetWarning,0828.8,5.00,000.00,028.1,024.6,000.0,036.4,029.2,20.6,0000.0,0007.66,0002.76,0001.99
2023-09-21 16:52:00,SystemResetWarning,0828.8,5.00,000.00,028.0,024.4,000.0,036.4,029.3,20.1,0000.0,0007.69,0002.79,0002.02
2023-09-21 16:53:00,SystemResetWarning,0828.8,5.02,000.00,028.0,024.7,000.0,036.3,029.3,19.9,0000.0,0007.71,0002.80,0002.03
2023-09-21 16:54:00,SystemResetWarning,0828.8,5.00,000.00,027.9,025.0,000.0,036.3,029.2,20.0,0000.0,0007.04,0002.80,0002.04
2023-09-21 16:55:00,SystemResetWarning,0828.8,5.00,000.00,027.9,025.4,000.0,036.3,029.3,20.3,0000.0,0007.14,0002.79,0002.03
2023-09-21 16:56:00,SystemResetWarning,0828.8,5.00,000.00,027.9,025.7,000.0,036.3,029.4,20.3,0000.0,0007.05,0002.81,0002.04
2023-09-21 16:57:00,SystemResetWarning,0828.8,4.99,000.00,027.9,026.0,000.0,036.3,029.4,20.4,0000.0,0006.91,0002.83,0002.06
2023-09-21 16:58:00,SystemResetWarning,0828.8,4.99,000.00,028.0,026.2,000.0,036.3,029.5,20.3,0000.0,0006.70,0002.86,0002.08
2023-09-21 16:59:00,SystemResetWarning,0828.8,5.01,000.00,028.0,026.4,000.0,036.3,029.6,20.5,0000.0,0006.70,0002.84,0002.08
